Showing default

NOVASAR 1, 43619

Orbit data source: Space-Track

NOVASAR 1, 43619 is a payload satellite owned by SSTL (Astrium) (UK) in SSO that was launched on Sun, 16 Sep 2018 UTC via a PSLV launch vehicle from the Sirharikota (SRI). Payload-class satellites include a variety of spacecraft equipped with specific instruments for various scientific and technological missions. These include communications satellites like Starlink; space stations such as the ISS; scientific satellites like the Hubble; Earth observation satellites from companies like Planet Labs, Umbra, and HawkEye 360; GPS; miniature CubeSats for education and research; and military/defense satellites.

Loading next visibility...
Identifier
43619, 2018-071B
Orbit
SSO
Country
Flag of UKUK
Related business
Manufacturer
SSTL (Astrium)
Mission
Operational Commercial Imaging
Bus & Motor
NOVASAR-S, XE
Mass
445 kg wet, 400 kg dry
Launch date (UTC)
2018-09-16 (7 years ago)
Launch vehicle
PSLV
Launch site
Sirharikota (SRI)
Object type
Payload
Rocket body
Debris
Shape & HBR
Tri Box, 1.5 m
Radar Cross Section
3.500 m², Large (>1 m²)

Expand to show TLE details & history
Last TLE update: 6 hours ago

TLE from 6 hours ago
0 NOVASAR 1
1 43619U 18071B   25299.52075888  .00000652  00000-0  62699-4 0  9999
2 43619  97.5347 175.9203 0001446 130.7533 229.3815 14.96182912387993
Epoch: 2025-10-26T12:29Z
TLE epoch observation values (Epoch: 2025-10-26T12:29:53.567Z)
Latitude
0.00004°
Longitude
-46.68867°
Altitude
582.413 km
Speed
7.569 km/s
True Right ascension
11h 43m 40s
True Declination
0° 00' 00"
Sunlit
Object was in daylight at epoch
Visualization orbit readout
Latitude
Unknown
Longitude
Unknown
Altitude
Unknown
Speed
Unknown
Apparent Right ascension
Unknown
Apparent Declination
Unknown
Sunlit
N/A
Visualization observer readout
Local Sidereal Time
13:42:01
Azimuth
Unknown
Elevation
Unknown
Doppler factor
Unknown
Orbital elements
Apogee altitude
576.712 km
Perigee altitude
574.701 km
Semi-major axis
6,953.844 km
Eccentricity
0.00014
Inclination
97.5347°
RAAN
175.9203°
Arg. of periapsis
130.7533°
True anomaly
229.36892°
Mean anomaly
229.3815°
Eccentric anomaly
229.37521°
Mean motion
3.74288 °/min
Orbital period
96.18 mins
BSTAR
0.000062699
Loading maneuver chart data...
Computing Atmospheric mass density...
Loading historical data...
Loading historical data...
Loading historical data...
Loading historical data...
Loading historical data...
Loading historical data...
Loading historical data...
Other satellites on launch #71 in the year 2018 (2018-09-16 UTC)

Documentation

Showing up to 5 results
|